ARIRANG-3 (KOMPSAT-3)

Last updated on Wed May 14 2025 00:02:27 GMT+0000 (Coordinated Universal Time)

1 38338U 12025B 25133.57325129 .00000581 00000+0 12434-3 0 9993 2 38338 98.3047 86.9735 0005676 279.6459 80.4101 14.62467042692964
UTC large
Height (km)
Speed (km/s)
/
Latitude / Longitude
Inclination (degrees)
Orbital Period (minutes)
Azimuth
Elevation
Range (km)
Doppler Factor

Next 0 passes for location: London (51.5072 / 0.1276)

Sorry there are no passes over London.